Location: Key Biscayne
(25.6930°N, 80.1630°W)
Time: 21:09:35
(UTC-05:00)

Hubble Space Telescope - Pass Details

Date: 12 November 2017
Orbit: 537 x 541 km, 28.5° (Epoch: 18 November)

Event Time Altitude Azimuth Distance (km) Brightness Sun altitude
Rises 05:23:19 0° 207° (SSW) 2,663 4.2 -16.7°
Reaches altitude 10° 05:26:41 10° 178° (S) 1,776 3.6 -15.9°
Maximum altitude 05:28:34 13° 151° (SSE) 1,602 3.7 -15.5°
Drops below altitude 10° 05:30:27 10° 123° (ESE) 1,779 4.6 -15.1°
Sets 05:33:48 0° 95° (E) 2,673 6.2 -14.4°
